Starlink 34752

operational
NORAD ID: 66153 Int'l Des: 2025-240 Owner: SPXS Country: US Constellation: starlink
LEOCIRCULAR

Starlink 34752について

説明を読み込み中...

リアルタイム位置

3D地球を読み込み中...

次回通過

高度履歴

Altitude vs Time

uPlot chart will show altitude changes over time

軌道要素

1 66153U 25240H 25351.25979889 .00018199 00000-0 62478-3 0 9995
2 66153 53.1602 86.0035 0001611 84.8934 275.2251 15.30215405 9365
Epoch: Dec 17, 2025 • Age: 13 hours

現在のステータス

高度 480.5 km
速度 7.63 km/s
衛星直下点 52.92°N, 168.59°E
打ち上げ日 Oct 25, 2025
運用期間 0.1 years
タイプ internet

技術仕様

分類 Payload
質量 575.00 kg
乾燥質量 530.00 kg
総質量 575.00 kg
長さ 0.30 m
直径 4.10 m
スパン 29.00 m
形状 Box + pan
製造者 SPXS
バスタイプ Starlink V2MO
フェーズステータス In Orbit
所有者/国 SPXS/US

大規模コンステレーション

Loading constellations...